Regional Weather Roundup
Issued by NWS

Home | Current Version | Previous Version | Graphics & Text | Print | Product List | Glossary On
Versions: 1 2 3 4 5 6 7 8 9 10 11 12 13 14 15 16 17 18 19 20 21 22 23 24 25 26 27 28 29 30 31 32 33 34 35 36 37 38 39 40 41 42 43 44 45 46 47 48 49 50
000
ASUS43 KDMX 220806
RWRIA

WEATHER ROUNDUP FOR IOWA
NATIONAL WEATHER SERVICE DES MOINES IA
200 AM CST SUN JAN 22 2017

NOTE: "FAIR" INDICATES FEW OR NO CLOUDS BELOW 12,000 FEET WITH NO
SIGNIFICANT WEATHER AND/OR OBSTRUCTIONS TO VISIBILITY.

* - THESE STATIONS ARE NOT NWS STATIONS...THUS NOT UNDER NWS
QUALITY CONTROL.  THEY ALSO DO NOT REPORT WEATHER SUCH
AS PRECIPITATION OR FOG.

IAZ001>003-012>014-020>022-031>034-043>046-220900-
   NORTHWEST IOWA

CITY           SKY/WX    TMP DP  RH WIND       PRES   REMARKS
CARROLL *      CLEAR     30  30 100 NW7       29.58S WCI  23
CHEROKEE *     CLOUDY    32  31  97 NW3       29.60R
DENISON *      PTCLDY    28  28 100 N7        29.58R WCI  21
LE MARS *      CLOUDY    32  30  93 NW10      29.63R WCI  24
ORANGE CITY *  CLOUDY    32  30  93 NW8       29.60R WCI  25
SHELDON *      CLOUDY    32  32 100 W10       29.58R WCI  24
SIOUX CITY     CLOUDY    32  30  92 NW10      29.63S WCI  24
SPENCER          N/A    N/A N/A N/A MISG      29.57S
STORM LAKE *   CLOUDY    30  30 100 NW13      29.58R WCI  20
$$

IAZ055>058-069>071-079>083-090>094-220900-
   SOUTHWEST IOWA

CITY           SKY/WX    TMP DP  RH WIND       PRES   REMARKS
ATLANTIC *     FOG       30  30 100 CALM      29.59R VSB<1/4
AUDUBON *      CLEAR     28  27  93 CALM      29.58S FOG
CLARINDA *     FOG       30  30 100 N7        29.59R VSB 1/4 WCI  23
COUNCIL BLFS * CLOUDY    32  32 100 N8        29.59R WCI  25
CRESTON *      FOG       36  36 100 NW7       29.57S VSB 1/2 WCI  30
HARLAN  *      CLEAR     30  32 100 N6        29.62R WCI  24
LAMONI         FOG       32  31  96 SE6       29.56R VSB 1/4 WCI  26
RED OAK *      CLEAR     28  28 100 CALM      29.59R
SHENANDOAH *   CLEAR     30  30 100 CALM      29.59R
$$

IAZ047>049-059>061-072>074-084-220900-
   CENTRAL IOWA

CITY           SKY/WX    TMP DP  RH WIND       PRES   REMARKS
AMES           CLOUDY    34  34 100 NW5       29.58R FOG     WCI  30
ANKENY *       FOG       30  30 100 CALM      29.59R VSB<1/4
BOONE *        MOCLDY    32  32 100 CALM      29.56S FOG
CHARITON *     FOG       28  28 100 S3        29.56R VSB<1/4
DES MOINES     FOG       31  31 100 W3        29.59R VSB 1/4
GRINNELL*      FOG       29  29 100 S3        29.57R VSB 1/4
KNOXVILLE *    FOG       28  28 100 W3        29.55S VSB<1/4
MARSHALLTOWN   CLOUDY    34  34 100 NW6       29.56S FOG     WCI  29
NEWTON *       FOG       30  30 100 CALM      29.57R VSB<1/4
PELLA *        FOG       30  29  99 S7        29.58R VSB 1/4 WCI  23
PERRY *          N/A     32  32 100 NW3       29.58R FOG
$$

IAZ004>006-015-016-023>025-035-036-220900-
   NORTH CENTRAL IOWA

CITY           SKY/WX    TMP DP  RH WIND       PRES   REMARKS
ALGONA *       CLOUDY    32  32 100 MISG      29.56S
CLARION *      CLOUDY    32  32 100 NW8       29.57R WCI  25
ESTHERVILLE    CLOUDY    32  32 100 NW13      29.56R FOG     WCI  22
FORT DODGE *   CLOUDY    32  28  86 NW5       29.58R WCI  27
MASON CITY     CLOUDY    32  31  96 NW8       29.56R FOG     WCI  25
FOREST CITY *  FOG       32  32 100 NW10      29.54S VSB 3/4 WCI  24
WEBSTER CITY * CLOUDY    32 N/A N/A NW9       29.56R WCI  24
IOWA FALLS *   CLOUDY    33  33  99 NW13      29.58R WCI  24
$$

IAZ007>011-017>019-026>030-037>042-050>054-066-220900-
   NORTHEAST IOWA

CITY           SKY/WX    TMP DP  RH WIND       PRES   REMARKS
CEDAR RAPIDS   FOG       32  31  96 CALM      29.56S VSB 1/4
CHARLES CITY * CLOUDY    34  34 100 W7        29.56S FOG     WCI  28
CLINTON *      FOG       36  36 100 S6        29.59S VSB 1/2 WCI  31
DECORAH *      CLOUDY    36  36 100 CALM      29.55S FOG
DUBUQUE        FOG       34  34 100 CALM      29.57S VSB 1/4
MONTICELLO *   MIX PCPN  30  30 100 CALM      29.57S VSB<1/4
OELWEIN *      FOG       32  32 100 S7        29.56F VSB<1/4 WCI  26
WATERLOO       CLOUDY    33  32  96 CALM      29.56S FOG
$$

IAZ064-065-067-068-078-220900-
   EAST CENTRAL IOWA

CITY           SKY/WX    TMP DP  RH WIND       PRES   REMARKS
DAVENPORT      CLEAR     34  33  96 S3        29.59R FOG
IOWA CITY      PTCLDY    31  30  96 CALM      29.58S FOG
MUSCATINE *    FOG       30  30 100 S6        29.60R VSB<1/4 WCI  24
QUAD CITIES    CLOUDY    35  32  88 CALM      29.59R FOG
$$

IAZ062-063-075>077-085>089-095>099-220900-
   SOUTHEAST IOWA

CITY           SKY/WX    TMP DP  RH WIND       PRES   REMARKS
BURLINGTON     CLOUDY    35  35 100 N6        29.57F FOG     WCI  30
FAIRFIELD *    FOG       28  28 100 CALM      29.57F VSB<1/4
FORT MADISON * FOG       34  34 100 N3        29.58F VSB 1/4
KEOKUK *       CLOUDY    39 N/A N/A E3        29.57R FOG
OSKALOOSA *    FOG       28  28 100 S3        29.58R VSB 1/4
CENTERVILLE *  FOG       28  28 100 CALM      29.57F VSB 1
OTTUMWA        FOG       30  28  92 CALM      29.57R VSB 1/4
WASHINGTON *   FOG       30  30 100 S5        29.59S VSB<1/4 WCI  25
$$

ABBREVIATIONS USED IN REMARKS
   TC - TEMPERATURES IN CELSIUS
  WCI - WIND CHILL INDEX
   HX - HEAT INDEX
  VSB - VISIBILITY
$$





USA.gov is the U.S. government's official web portal to all federal, state and local government web resources and services.